Current Version              Previous Version:    01  02  03  04  05  06  07  08  09  10  11  12  13  14  15  16  17  18  19  20  21  22  23  24  25  26  27  28  29  30  
   31  32  33  34  35  36  37  38  39  40  41  42  43  44  45  46  47  48  49  50  51  52  53  54  55  56  57  58  59  60  

[Printable]
574
ASUS44 KLUB 230910
RWRTX
WEST TEXAS WEATHER ROUNDUP
NATIONAL WEATHER SERVICE LUBBOCK TX
300 AM CST SUN NOV 23 2014

NOTE: "FAIR" INDICATES FEW OR NO CLOUDS BELOW 12,000 FEET WITH NO
SIGNIFICANT WEATHER AND/OR OBSTRUCTIONS TO VISIBILITY.

TXZ004-006>008-010-012-014-016-OKZ002-231000-
TEXAS PANHANDLE/OKLAHOMA PANHANDLE

CITY           SKY/WX    TMP DP  RH WIND       PRES   REMARKS
AMARILLO       MOCLDY    51  20  29 W17       29.47F
BORGER         PTCLDY    43  25  49 SW7       29.46F
CANADIAN       CLEAR     46  44  96 S7        29.45F
DALHART        CLOUDY    47  21  35 W16       29.51F
DUMAS            N/A     42  21  43 W15       29.48S
GUYMON         PTCLDY    35  27  72 CALM      29.43F
HEREFORD       MOCLDY    54  23  30 SW21G26   29.55S
PAMPA          CLEAR     38  34  84 SW9       29.46F WCI  32
PERRYTON         N/A     39  38  96 SE5       29.43F VSB 1/2
$$

TXZ026-029-035-045-048-231000-
SOUTHERN PANHANDLE/SOUTH PLAINS/ROLLING PLAINS

CITY           SKY/WX    TMP DP  RH WIND       PRES   REMARKS
CHILDRESS      PTCLDY    47  45  93 S13       29.50F FOG
SEMINOLE       PTCLDY    50  24  36 W15       29.67F
LUBBOCK        PTCLDY    50  27  40 W15       29.57F
PLAINVIEW      PTCLDY    50  26  38 SW16      29.53F
SNYDER         MOCLDY    47  47 100 S9        29.62F FOG
$$

TXZ052-054-060>062-072-078-127-140-154-169-231000-
PERMIAN BASIN/CONCHO VALLEY/BIG COUNTRY/EDWARDS PLATEAU

CITY           SKY/WX    TMP DP  RH WIND       PRES   REMARKS
ABILENE        CLEAR     53  51  93 SW12      29.62F
BIG SPRING     CLEAR     46  41  82 S8        29.66F
BRADY          CLEAR     52  52 100 SW7       29.67F
BROWNWOOD      MOCLDY    48  48 100 SE3       29.66F FOG
JUNCTION       CLEAR     50  49  96 CALM      29.71F
MIDLAND        CLEAR     53  36  52 SW16      29.67F
ODESSA         CLEAR     49  34  56 W13       29.69F
SAN ANGELO     CLEAR     50  45  83 SW8       29.67F
SONORA         CLEAR     46  45  93 CALM      29.76F
SWEETWATER     CLEAR     52  49  92 S13       29.66S
WINK           CLEAR     47  30  51 W8        29.69F
$$

TXZ055-058-074-075-080-082-231000-
FAR WEST/SOUTHWEST MOUNTAINS/TRANS PECOS

CITY           SKY/WX    TMP DP  RH WIND       PRES   REMARKS
ALPINE         CLEAR     51  32  48 SW10G17   29.91R
DRYDEN           N/A     53  39  59 W9        29.74F
EL PASO        CLEAR     53  21  28 S13       29.88F
FORT STOCKTON  CLEAR     53  33  46 SW16      29.75F
GUADALUPE PASS PTCLDY    46  20  35 W46G55    29.78R
MARFA          PTCLDY    37  30  75 W5        29.91R WCI  34
PECOS          CLEAR     59  29  32 SW25G35   29.72S
PRESIDIO       FAIR      52  37  58 CALM      29.88S
$$

TXZ014-016-019-021>030-083-231000
TEXAS TECH WEST TEXAS MESONET/TEXAS PANHANDLE/NORTHERN SOUTH PLAINS

CITY           SKY/WX    TMP DP  RH WIND       PRES   REMARKS
AMARILLO 9NNE    N/A     49  21  32 W10       29.47F
AMARILLO 7SSE    N/A     47  22  38 SW16      29.50F
AMHERST 1NE      N/A     52  23  31 SW16      29.59F
BOOTLEG 11WNW    N/A     51  19  28 W15       29.61R
CANADIAN 6E      N/A     45  44  97 SE8       29.44F
CAPROCK CYN SP   N/A     58  23  25 SW31      29.45F
CHILDRESS 2NNE   N/A     48  47  97 S14       29.49F
CLARENDON 2WSW   N/A     45  36  69 SW16      29.46F
CLAUDE 12SW      N/A     52  22  31 SW15      29.49F
DIMMITT 2NE      N/A     47  20  34 SW13      29.56F
FLOYDADA 2NNE    N/A     44  30  59 SW16      29.54F
FRIONA 2NE       N/A     52  19  26 W16       29.59S
GOODLETT 3W      N/A     48  46  92 SW9       29.50F
HART 3N          N/A     48  22  36 W15       29.55F
HEREFORD 2NW     N/A     51  20  29 W21       29.55S
MCLEAN 1E        N/A     40  40  99 S6        29.47S
MEMPHIS 1NE      N/A     40  40  99 S1        29.50F
MULESHOE 2SSW    N/A     52  19  27 SW15      29.59F
OLTON 6S         N/A     48  23  37 SW15      29.57F
PALO DURO SP     N/A     51  22  32 W18       29.50F
PAMPA 2E         N/A     38  35  88 SW6       29.46F WCI  34
PLAINVIEW 1S     N/A     49  26  41 SW12      29.54F
SILVERTON 7ESE   N/A     51  27  39 SW23      29.49F
TULIA 2ENE       N/A     50  23  34 SW20      29.52F
TURKEY 2WSW      N/A     46  37  70 SE6       29.49F
UMBARGER 3NNE    N/A     47  22  38 SW17      29.52F
$$

TXZ033>036-039>041-045>048-231000
TEXAS TECH WEST TEXAS MESONET/SOUTH PLAINS

CITY           SKY/WX    TMP DP  RH WIND       PRES   REMARKS
AIKEN 3WSW       N/A     47  28  46 SW18      29.55F
ANDREWS 2NE      N/A     50  32  49 SW12      29.67F
ANTON 6SSW       N/A     51  27  38 SW17      29.59F
BROWNFIELD 2S    N/A     51  23  34 W16       29.62F
DENVR CTY 7WNW   N/A     49  22  34 W15       29.65F
GAIL 2ESE        N/A     45  38  77 SW13      29.59F
LAMESA 2SE       N/A     44  37  77 SW10      29.64F
LEVELLAND 4S     N/A     50  23  34 SW14      29.62S
LUBBOCK 3WNW     N/A     52  26  36 W13       29.59F
MORTON 1ENE      N/A     51  23  34 SW13      29.61F
ODONNELL 1N      N/A     43  34  69 SW12      29.62F
PLAINS 3N        N/A     49  24  36 W15       29.65F
RALLS 1SE        N/A     43  35  72 SW10      29.58F
REESE CENTER     N/A     50  25  38 SW15      29.59F
SEAGRAVES 1SW    N/A     52  23  31 W21       29.64F
SEMINOLE 2NNE    N/A     54  21  27 W18       29.65F
SLATON 2NE       N/A     45  34  66 SW13      29.59S
SNYDER 3E        N/A     47  47  99 S8        29.61F
SUNDOWN 8SW      N/A     50  24  35 SW15      29.62F
TAHOKA 3NNE      N/A     45  33  62 SW10      29.60S
WOLFFORTH 6SSW   N/A     51  26  37 SW18      29.60F
$$

TXZ031-032-036>038-042>044-231000-
TEXAS TECH WEST TEXAS MESONET/ROLLING PLAINS

CITY           SKY/WX    TMP DP  RH WIND       PRES   REMARKS
ASPERMONT 3NE    N/A     51  51  97 S10       29.58S
FLUVANNA 3WNW    N/A     46  44  95 S7        29.59F
GRAHAM 5SSW      N/A     47  34  60 W15       29.59F
GUTHRIE 10WSW    N/A     50  49  97 SW12      29.56S
HASKELL 1NW      N/A     48  47  97 S8        29.58F
JAYTON 1SSE      N/A     50  49  97 SW6       29.58S
KNOX CITY 3NW    N/A     49  46  90 S9        29.57F
LK A HENRY 1NW   N/A     48  46  91 SW7       29.58F
NORTHFIELD 1S    N/A     48  45  87 S9        29.51F
ODELL 4ENE       N/A     51  51 100 S13       29.54S
PADUCAH 10SW     N/A     48  47  97 S13       29.54S
POST 1NE         N/A     49  36  59 W16       29.57F
RRING SPRGS 3N   N/A     45  43  95 S8        29.53F
SEYMOUR 3NW      N/A     51  49  94 S10       29.57F
SPUR 1W          N/A     48  47  96 S5        29.56F
WEINERT 2NNE     N/A     49  48  96 S8        29.57F
WHITE RVR 6NE    N/A     45  44  98 SW8       29.56F
$$

TXZ052-054-060>062-072-078-127-140-154-169-231000-
TEXAS TECH WEST TEXAS MESONET/PERMIAN BASIN/
CONCHO VALLEY/BIG COUNTRY/EDWARDS PLATEAU

CITY           SKY/WX    TMP DP  RH WIND       PRES   REMARKS
COYANOSA 2N      N/A     50  32  51 SW9       29.73R
JUNCTION 1SSW    N/A     48  47  98 S3        29.71F
MERTZON 3NNE     N/A     57  40  53 SW12      29.68F
SAN ANGELO 7NW   N/A     47  46  95 SE3       29.67F
STRLNG CT 4WSW   N/A     53  40  60 SW7       29.67S
ST LAWRNCE 5SW   N/A     50  37  60 SW12      29.68S
SWEETWATR 11SW   N/A     49  46  88 S8        29.65S
WALL 1E          N/A     52  45  77 S10       29.67F
$$

TXZ055-058-074-075-080-082-231000-
TEXAS TECH WEST TEXAS MESONET/FAR WEST/SOUTHWEST MOUNTAINS/TRANS PECOS

CITY           SKY/WX    TMP DP  RH WIND       PRES   REMARKS
PRSMN GAP BBNP   N/A     53  37  54 S7        29.82F
GUADLPE MTN NP   N/A     50  15  24 W38G49    29.77R
$$